📊 Raw Sensor Data
Showing records 32151 to 32175 of 84,672 total
| ID | Distance (ft) | Battery V | Battery A | Int Temp (°F) | Int Humid (%) | Ext Temp (°F) | Solar V | RSSI | SNR | Time Stamp |
|---|---|---|---|---|---|---|---|---|---|---|
| 52534 | 15.2 | 4.13 | 0 | 81 | 41 | 79 | 5.10 | -72 | 8 | 09/20/2025 10:30 AM |
| 52533 | 13.8 | 4.03 | 0 | 79 | 41 | 81 | 5.10 | -73 | 7 | 09/20/2025 10:15 AM |
| 52532 | 15.3 | 4.03 | 0 | 77 | 41 | 77 | 5.10 | -73 | 8 | 09/20/2025 10:00 AM |
| 52531 | 14.0 | 4.03 | 0 | 75 | 41 | 74 | 5.10 | -72 | 7 | 09/20/2025 09:45 AM |
| 52530 | 15.2 | 4.15 | 0 | 74 | 41 | 74 | 5.10 | -73 | 8 | 09/20/2025 09:30 AM |
| 52529 | 15.2 | 4.15 | 0 | 71 | 42 | 72 | 5.10 | -73 | 8 | 09/20/2025 09:15 AM |
| 52528 | 15.1 | 4.03 | 0 | 70 | 42 | 72 | 5.10 | -72 | 7 | 09/20/2025 09:00 AM |
| 52527 | 15.1 | 4.03 | 0 | 68 | 42 | 70 | 5.10 | -71 | 7 | 09/20/2025 08:45 AM |
| 52526 | 15.1 | 4.03 | 0 | 66 | 42 | 70 | 5.10 | -72 | 8 | 09/20/2025 08:30 AM |
| 52525 | 15.0 | 4.03 | 0 | 65 | 42 | 68 | 5.10 | -71 | 8 | 09/20/2025 08:15 AM |
| 52524 | 15.0 | 4.04 | 0 | 64 | 42 | 66 | 5.10 | -71 | 8 | 09/20/2025 08:00 AM |
| 52523 | 14.9 | 4.07 | 19 | 62 | 42 | 64 | 4.50 | -71 | 8 | 09/20/2025 07:45 AM |
| 52522 | 14.9 | 4.08 | 10 | 61 | 43 | 63 | 4.50 | -71 | 7 | 09/20/2025 07:30 AM |
| 52521 | 14.9 | 4.03 | 0 | 60 | 44 | 62 | 4.50 | -70 | 8 | 09/20/2025 07:15 AM |
| 52520 | 15.0 | 3.95 | -10 | 59 | 44 | 60 | 4.50 | -71 | 8 | 09/20/2025 07:00 AM |
| 52519 | 15.2 | 3.97 | -5 | 59 | 44 | 60 | 1.40 | -71 | 8 | 09/20/2025 06:45 AM |
| 52518 | 13.5 | 3.97 | -5 | 59 | 44 | 60 | 0.00 | -71 | 8 | 09/20/2025 06:30 AM |
| 52517 | 13.8 | 3.97 | -5 | 59 | 44 | 60 | 0.00 | -71 | 8 | 09/20/2025 06:15 AM |
| 52516 | 14.8 | 3.97 | -5 | 59 | 44 | 60 | 0.10 | -71 | 8 | 09/20/2025 06:00 AM |
| 52515 | 14.9 | 4.02 | -5 | 59 | 44 | 60 | 0.00 | -70 | 8 | 09/20/2025 05:45 AM |
| 52514 | 14.9 | 4.02 | -5 | 59 | 44 | 61 | 0.00 | -70 | 8 | 09/20/2025 05:30 AM |
| 52513 | 14.9 | 4.03 | -5 | 59 | 44 | 60 | 0.00 | -71 | 8 | 09/20/2025 05:15 AM |
| 52512 | 14.9 | 4.03 | -5 | 60 | 44 | 61 | 0.00 | -70 | 8 | 09/20/2025 05:00 AM |
| 52511 | 14.9 | 3.97 | -5 | 60 | 44 | 61 | 0.00 | -71 | 8 | 09/20/2025 04:45 AM |
| 52510 | 15.0 | 3.97 | -5 | 60 | 44 | 61 | 0.00 | -71 | 7 | 09/20/2025 04:30 AM |